Regional Weather Roundup
Issued by NWS Green Bay, WI

Home | Current Version | Previous Version | Text Only | Print | Product List | Glossary On
Versions: 1 2 3 4 5 6 7 8 9 10 11 12 13 14 15 16 17 18 19 20 21 22 23 24 25 26 27 28 29 30 31 32 33 34 35 36 37 38 39 40 41 42 43 44 45 46 47 48 49 50
000
ASUS43 KGRB 260701
RWRGRB

NORTH-CENTRAL AND NORTHEAST WISCONSIN REGIONAL WEATHER ROUNDUP
NATIONAL WEATHER SERVICE GREEN BAY WI
200 AM CDT TUE SEP 26 2017

WIZ005-009-010>012-018-019-260800-
NORTH CENTRAL WISCONSIN

CITY           SKY/WX    TMP DP  RH WIND       PRES   REMARKS
IRONWOOD       FOG       56  56 100 NE5       29.97R VSB 1/2
MANITOWISH WTR NOT AVBL
ARBOR VITAE    NOT AVBL
EAGLE RIVER    NOT AVBL
LAND O LAKES   FOG       61  61 100 NE3       29.97F VSB 1/4
RHINELANDER    CLOUDY    62  62 100 E3        29.96F
PHILLIPS       FOG       59  59 100 CALM      29.94S VSB 1/2
ANTIGO         NOT AVBL
TOMAHAWK       NOT AVBL
MERRILL        CLOUDY    63  63 100 CALM      29.95S
$$

WIZ013-073-260800-
NORTHEAST WISCONSIN

CITY           SKY/WX    TMP DP  RH WIND       PRES   REMARKS
IRON MOUNTAIN  CLOUDY    65  63  93 SE5       29.94F FOG
MARINETTE      CLEAR     66  62  87 NE3       29.94R
$$

WIZ017-030-035>037-045-260800-
CENTRAL WISCONSIN

CITY           SKY/WX    TMP DP  RH WIND       PRES   REMARKS
MEDFORD        NOT AVBL
WAUSAU         LGT RAIN  65  65 100 CALM      29.93F
MOSINEE        NOT AVBL
MARSHFIELD     CLOUDY    64  62  93 CALM      29.93F
WISC RAPIDS    LGT RAIN  66  65  96 CALM      29.95R
STEVENS POINT  NOT AVBL
WAUPACA        NOT AVBL
SHAWANO        CLEAR     66  63  91 CALM      29.95R
CLINTONVILLE   NOT AVBL
WAUTOMA        CLEAR     65  63  93 CALM      29.96S
$$

WIZ038-039-048-051-260800-
FOX VALLEY

CITY           SKY/WX    TMP DP  RH WIND       PRES   REMARKS
NWS GREEN BAY  CLEAR     64  63  96 W5        29.95R
APPLETON       NOT AVBL
OSHKOSH        CLEAR     67  63  87 NW6       29.95S
FOND DU LAC    CLEAR     68  60  75 N3        29.95R
$$

WIZ022-050-052-260800-
EAST CENTRAL WISCONSIN

CITY           SKY/WX    TMP DP  RH WIND       PRES   REMARKS
EPHRAIM        FAIR      67  62  83 N5        29.93S
WASHINGTON ISL FAIR      58  58  98 CALM      29.93F
STURGEON BAY   CLEAR     65  60  84 CALM      29.94
MANITOWOC      PTCLDY    63  59  87 CALM      29.94S
SHEBOYGAN      PTCLDY    63  62  97 CALM      29.93S
$$

LMZ563-521-522-541>543-260800-
LAKESHORE

STATION/POSITION TIME  TEMP    WIND        PRES    VSBY  WAVE
                       AIR SEA DIR/SP/G                  HT/PER
                 (UTC) (F)     (DEG/KT/KT) (MB)    (MI)  (FT/S)
SHEBOYGAN LKSHOR 0600   72     240/  4/  5 1013.1R
KEWAUNEE LKSHORE 0630   66     290/  1/  2 1013.0R
NORTHPORT PIER   0640   69      CALM  /  2 1013.5R
N MID LAKE BUOY  0550   69 67  190/  6/  6 1014.5R         1
S GREEN BAY BUOY 0630   70 70  110/  2/  2 1013.5F
SISTER BAY LKSHO 0619   70     310/  4/  5   N/A
MENOMINEE LKSHOR 0630   68     360/  6/  6 1013.3R
$$



USA.gov is the U.S. government's official web portal to all federal, state and local government web resources and services.